Flag for Brazil Weather past 2 weeks in Campo Grande, Mato Grosso Do Sul, Brazil

Now
75 °F

Clear.


Feels Like: 77 °F
Forecast: 65 / 89 °F
Wind: 9 mph from South

Location: Campo Grande Aeroporto

Current Time: Sep 4, 2015 at 12:25:13 AM

Latest Report: Sep 3, 2015 at 11:00 PM


Visibility: 10 mi

Pressure: 30.01 "Hg (28.28 "Hg at 516m altitude)

Humidity: 61%

Dew point: 61 °F

Location of Campo GrandeLocation

Historic Weather in Campo Grande — Graph

°F

Campo Grande temperature yesterday

Maximum temperature yesterday: 95 °F (at 1:00 PM)
Minimum temperature yesterday: 72 °F (at 12:00 AM)
Average temperature yesterday: 82 °F

Past Weeks' High & Low Weather Summary

 TemperatureHumidityPressure
High95 °F (Aug 26, 1:00 PM)100% (Aug 27, 6:00 PM)30.18 "Hg (Aug 27, 6:00 PM)
Low46 °F (Aug 27, 6:00 PM)19% (Sep 3, 2:00 PM)29.83 "Hg (Aug 26, 3:00 PM)
Average78 °F48%30.00 "Hg
* Reported Aug 19 11:00 PM — Sep 3 11:00 PM, Campo Grande, Weather by CustomWeather, © 2015

Note: Actual official high and low records may vary slightly from our data, if they occured in-between our weather recording intervals... More about our weather records

Advertising

Campo Grande weather history for previous 24 hours

 ConditionsComfort  
Time TempWeatherWind HumidityBarometerVisibility
11:00 PM
Thu, Sep 3
75 °FClear.9 mph61%30.01 "Hg10 mi
10:00 PM77 °FPassing clouds.10 mph57%30.01 "HgN/A
9:00 PM72 °FClear.1 mph57%29.98 "Hg10 mi
8:00 PM79 °FClear.2 mph37%29.95 "Hg10 mi
7:00 PM79 °FClear.1 mph37%29.95 "Hg10 mi
6:00 PM82 °FClear.6 mph35%29.92 "Hg10 mi
5:00 PM91 °FClear.5 mph26%29.92 "Hg10 mi
4:00 PM93 °FSunny.13 mph21%29.92 "Hg10 mi
3:00 PM95 °FSunny.10 mph22%29.92 "Hg10 mi
2:00 PM95 °FSunny.15 mph19%29.95 "Hg10 mi
1:00 PM95 °FPassing clouds.10 mph20%29.95 "HgN/A
12:00 PM93 °FPassing clouds.3 mph24%29.98 "HgN/A
11:00 AM91 °FSunny.6 mph26%30.01 "Hg10 mi
10:00 AM90 °FPassing clouds.7 mph29%30.04 "HgN/A
9:00 AM84 °FSunny.9 mph37%30.04 "Hg10 mi
8:00 AM81 °FSunny.13 mph39%30.01 "Hg10 mi
7:00 AM77 °FSunny.9 mph42%30.01 "Hg10 mi
6:00 AM73 °FSunny.9 mph47%29.98 "Hg10 mi
5:00 AM72 °FSunny.9 mph50%29.95 "Hg10 mi
4:00 AM73 °FClear.9 mph50%29.95 "Hg10 mi
3:00 AM73 °FClear.10 mph50%29.95 "Hg10 mi
2:00 AM73 °FClear.9 mph50%29.95 "Hg10 mi
1:00 AM72 °FClear.9 mph50%29.98 "Hg10 mi
12:00 AM72 °FClear.7 mph50%29.98 "Hg10 mi
Weather by CustomWeather, © 2015

See weather overviewHow to use our weather pages